User: anonymous   Login
Location: Newark
(44.6768°N, 22.5302°E)
Time: 13:09:50
(UTC+00:00)
Language:

UKube-1 - Orbit

View from above orbital plane
View from above orbital plane
View from above satellite
View from above satellite

Ground track
Ground track

The orbit data is extracted from the following two-line orbital elements,

1 40074U 14037F   22179.12939230  .00001569  00000-0  18902-3 0  9994
2 40074  98.3811  60.3573 0003058 265.8159  94.2700 14.85437831431658
Epoch (UTC): 28 June 2022 03:06:19
Eccentricity: 0.0003058
inclination: 98.3811°
perigee height: 610 km
apogee height: 614 km
right ascension of ascending node: 60.3573°
argument of perigee: 265.8159°
revolutions per day: 14.85437831
mean anomaly at epoch: 94.2700°
orbit number at epoch: 43165

The dashed part of the orbit path shows where the satellite is in the earth's shadow,  

DLR